Time,TemperatureF,DewpointF,PressureIn,WindDirection,WindDirectionDegrees,WindSpeedMPH,WindSpeedGustMPH,Humidity,HourlyPrecipIn,Conditions,Clouds,dailyrainin,SoftwareType,DateUTC
2013-03-01 00:00:00,29.3,10.6,29.97,North,-999,-999.0,-999.0,45,0.00,,,0.38,meteohub,2013-03-01 05:00:00,
2013-03-01 00:01:00,29.3,10.6,29.97,North,-999,-999.0,-999.0,45,0.00,,,0.38,meteohub,2013-03-01 05:01:00,
2013-03-01 00:03:00,29.3,10.6,29.97,North,-999,-999.0,-999.0,45,0.00,,,0.38,meteohub,2013-03-01 05:03:00,
2013-03-01 00:06:00,29.3,10.6,29.97,North,-999,-999.0,-999.0,45,0.00,,,0.38,meteohub,2013-03-01 05:06:00,
2013-03-01 00:11:00,29.3,10.6,29.97,North,-999,-999.0,-999.0,45,0.00,,,0.38,meteohub,2013-03-01 05:11:00,
2013-03-01 00:16:00,29.3,10.6,29.97,North,-999,-999.0,-999.0,45,0.00,,,0.38,meteohub,2013-03-01 05:16:00,
2013-03-01 00:24:00,29.3,10.6,29.97,North,-999,-999.0,-999.0,45,0.00,,,0.00,meteohub,2013-03-01 05:24:00,
2013-03-01 00:30:00,29.1,10.4,29.97,North,-999,-999.0,-999.0,45,0.00,,,0.00,meteohub,2013-03-01 05:30:00,
2013-03-01 00:35:00,29.1,10.4,29.97,North,-999,-999.0,-999.0,45,0.00,,,0.00,meteohub,2013-03-01 05:35:00,
2013-03-01 00:53:00,28.9,10.8,29.97,North,-999,-999.0,-999.0,46,0.00,,,0.00,meteohub,2013-03-01 05:53:00,
2013-03-01 00:59:00,28.9,10.8,29.94,North,-999,-999.0,-999.0,46,0.00,,,0.00,meteohub,2013-03-01 05:59:00,
2013-03-01 01:05:00,28.9,10.8,29.94,North,-999,-999.0,-999.0,46,0.00,,,0.00,meteohub,2013-03-01 06:05:00,
2013-03-01 01:13:00,28.8,10.6,29.97,North,-999,-999.0,-999.0,46,0.00,,,0.00,meteohub,2013-03-01 06:13:00,
2013-03-01 01:21:00,28.8,11.1,29.97,North,-999,-999.0,-999.0,47,0.00,,,0.00,meteohub,2013-03-01 06:21:00,
2013-03-01 01:27:00,28.8,11.1,29.97,North,-999,-999.0,-999.0,47,0.00,,,0.00,meteohub,2013-03-01 06:27:00,
2013-03-01 01:34:00,28.8,12.6,29.97,North,-999,-999.0,-999.0,50,0.00,,,0.00,meteohub,2013-03-01 06:34:00,
2013-03-01 01:39:00,28.6,12.7,29.97,North,-999,-999.0,-999.0,51,0.00,,,0.00,meteohub,2013-03-01 06:39:00,
2013-03-01 01:44:00,28.6,12.7,29.97,North,-999,-999.0,-999.0,51,0.00,,,0.00,meteohub,2013-03-01 06:44:00,
2013-03-01 01:53:00,28.4,13.1,29.97,North,-999,-999.0,-999.0,52,0.00,,,0.00,meteohub,2013-03-01 06:53:00,
2013-03-01 02:02:00,28.4,13.1,29.97,North,-999,-999.0,-999.0,52,0.00,,,0.00,meteohub,2013-03-01 07:02:00,
2013-03-01 02:09:00,28.6,12.7,29.97,North,-999,-999.0,-999.0,51,0.00,,,0.00,meteohub,2013-03-01 07:09:00,
2013-03-01 02:14:00,28.6,12.7,29.94,North,-999,-999.0,-999.0,51,0.00,,,0.00,meteohub,2013-03-01 07:14:00,
2013-03-01 02:19:00,28.6,12.4,29.94,North,-999,-999.0,-999.0,50,0.00,,,0.00,meteohub,2013-03-01 07:19:00,
2013-03-01 02:24:00,28.6,12.4,29.94,North,-999,-999.0,-999.0,50,0.00,,,0.00,meteohub,2013-03-01 07:24:00,
2013-03-01 02:30:00,28.6,11.8,29.97,North,-999,-999.0,-999.0,49,0.00,,,0.00,meteohub,2013-03-01 07:30:00,
2013-03-01 02:35:00,28.6,11.5,29.97,North,-999,-999.0,-999.0,48,0.00,,,0.00,meteohub,2013-03-01 07:35:00,
2013-03-01 02:40:00,28.6,11.8,29.97,North,-999,-999.0,-999.0,49,0.00,,,0.00,meteohub,2013-03-01 07:40:00,
2013-03-01 02:46:00,28.6,11.5,29.97,North,-999,-999.0,-999.0,48,0.00,,,0.00,meteohub,2013-03-01 07:46:00,
2013-03-01 02:52:00,28.4,11.3,29.97,North,-999,-999.0,-999.0,48,0.00,,,0.00,meteohub,2013-03-01 07:52:00,
2013-03-01 02:58:00,28.4,11.3,29.94,North,-999,-999.0,-999.0,48,0.00,,,0.00,meteohub,2013-03-01 07:58:00,
2013-03-01 03:03:00,28.4,11.3,29.94,North,-999,-999.0,-999.0,48,0.00,,,0.00,meteohub,2013-03-01 08:03:00,
2013-03-01 03:08:00,28.4,10.8,29.94,North,-999,-999.0,-999.0,47,0.00,,,0.00,meteohub,2013-03-01 08:08:00,
2013-03-01 03:14:00,28.4,11.3,29.97,North,-999,-999.0,-999.0,48,0.00,,,0.00,meteohub,2013-03-01 08:14:00,
2013-03-01 03:19:00,28.4,11.3,29.97,North,-999,-999.0,-999.0,48,0.00,,,0.00,meteohub,2013-03-01 08:19:00,
2013-03-01 03:24:00,28.4,10.8,29.97,North,-999,-999.0,-999.0,47,0.00,,,0.00,meteohub,2013-03-01 08:24:00,
2013-03-01 03:30:00,28.4,10.8,29.94,North,-999,-999.0,-999.0,47,0.00,,,0.00,meteohub,2013-03-01 08:30:00,
2013-03-01 03:35:00,28.4,10.2,29.94,North,-999,-999.0,-999.0,46,0.00,,,0.00,meteohub,2013-03-01 08:35:00,
2013-03-01 03:40:00,28.4,10.2,29.97,North,-999,-999.0,-999.0,46,0.00,,,0.00,meteohub,2013-03-01 08:40:00,
2013-03-01 03:47:00,28.4,10.2,29.97,North,-999,-999.0,-999.0,46,0.00,,,0.00,meteohub,2013-03-01 08:47:00,
2013-03-01 03:52:00,28.2,10.0,29.97,North,-999,-999.0,-999.0,46,0.00,,,0.00,meteohub,2013-03-01 08:52:00,
2013-03-01 03:59:00,28.2,10.0,29.97,North,-999,-999.0,-999.0,46,0.00,,,0.00,meteohub,2013-03-01 08:59:00,
2013-03-01 04:04:00,28.2,10.0,29.97,North,-999,-999.0,-999.0,46,0.00,,,0.00,meteohub,2013-03-01 09:04:00,
2013-03-01 04:10:00,28.2,10.0,29.97,North,-999,-999.0,-999.0,46,0.00,,,0.00,meteohub,2013-03-01 09:10:00,
2013-03-01 04:15:00,28.2,10.0,29.97,North,-999,-999.0,-999.0,46,0.00,,,0.00,meteohub,2013-03-01 09:15:00,
2013-03-01 04:22:00,28.0,10.0,29.97,North,-999,-999.0,-999.0,46,0.00,,,0.00,meteohub,2013-03-01 09:22:00,
2013-03-01 04:27:00,28.0,10.0,29.97,North,-999,-999.0,-999.0,46,0.00,,,0.00,meteohub,2013-03-01 09:27:00,
2013-03-01 04:32:00,28.0,10.0,29.97,North,-999,-999.0,-999.0,46,0.00,,,0.00,meteohub,2013-03-01 09:32:00,
2013-03-01 04:37:00,27.9,10.2,29.97,North,-999,-999.0,-999.0,47,0.00,,,0.00,meteohub,2013-03-01 09:37:00,
2013-03-01 04:43:00,27.9,10.2,29.97,North,-999,-999.0,-999.0,47,0.00,,,0.00,meteohub,2013-03-01 09:43:00,
2013-03-01 04:48:00,27.9,10.2,29.97,North,-999,-999.0,-999.0,47,0.00,,,0.00,meteohub,2013-03-01 09:48:00,
2013-03-01 04:53:00,27.9,10.2,29.97,North,-999,-999.0,-999.0,47,0.00,,,0.00,meteohub,2013-03-01 09:53:00,
2013-03-01 04:59:00,27.9,10.8,30.00,North,-999,-999.0,-999.0,48,0.00,,,0.00,meteohub,2013-03-01 09:59:00,
2013-03-01 05:04:00,27.7,10.6,30.00,North,-999,-999.0,-999.0,48,0.00,,,0.00,meteohub,2013-03-01 10:04:00,
2013-03-01 05:10:00,27.7,9.7,30.00,North,-999,-999.0,-999.0,46,0.00,,,0.00,meteohub,2013-03-01 10:10:00,
2013-03-01 05:17:00,27.7,9.7,30.00,North,-999,-999.0,-999.0,46,0.00,,,0.00,meteohub,2013-03-01 10:17:00,
2013-03-01 05:23:00,27.5,9.0,30.00,North,-999,-999.0,-999.0,45,0.00,,,0.00,meteohub,2013-03-01 10:23:00,
2013-03-01 05:28:00,27.5,9.0,30.00,North,-999,-999.0,-999.0,45,0.00,,,0.00,meteohub,2013-03-01 10:28:00,
2013-03-01 05:33:00,27.5,9.0,30.00,North,-999,-999.0,-999.0,45,0.00,,,0.00,meteohub,2013-03-01 10:33:00,
2013-03-01 05:39:00,27.3,8.2,30.00,North,-999,-999.0,-999.0,44,0.00,,,0.00,meteohub,2013-03-01 10:39:00,
2013-03-01 05:44:00,27.3,8.2,30.00,North,-999,-999.0,-999.0,44,0.00,,,0.00,meteohub,2013-03-01 10:44:00,
2013-03-01 05:49:00,27.3,7.9,30.00,North,-999,-999.0,-999.0,43,0.00,,,0.00,meteohub,2013-03-01 10:49:00,
2013-03-01 05:54:00,27.1,7.2,30.00,North,-999,-999.0,-999.0,42,0.00,,,0.00,meteohub,2013-03-01 10:54:00,
2013-03-01 06:00:00,27.1,7.2,30.03,North,-999,-999.0,-999.0,42,0.00,,,0.00,meteohub,2013-03-01 11:00:00,
2013-03-01 06:05:00,27.0,7.0,30.03,North,-999,-999.0,-999.0,42,0.00,,,0.00,meteohub,2013-03-01 11:05:00,
2013-03-01 06:10:00,26.8,6.8,30.03,North,-999,-999.0,-999.0,42,0.00,,,0.00,meteohub,2013-03-01 11:10:00,
2013-03-01 06:16:00,26.8,6.3,30.03,North,-999,-999.0,-999.0,41,0.00,,,0.00,meteohub,2013-03-01 11:16:00,
2013-03-01 06:21:00,26.6,6.6,30.03,North,-999,-999.0,-999.0,42,0.00,,,0.00,meteohub,2013-03-01 11:21:00,
2013-03-01 06:26:00,26.4,6.4,30.00,North,-999,-999.0,-999.0,42,0.00,,,0.00,meteohub,2013-03-01 11:26:00,
2013-03-01 06:32:00,26.4,6.4,30.00,North,-999,-999.0,-999.0,42,0.00,,,0.00,meteohub,2013-03-01 11:32:00,
2013-03-01 06:37:00,26.4,7.0,30.00,North,-999,-999.0,-999.0,43,0.00,,,0.00,meteohub,2013-03-01 11:37:00,
2013-03-01 06:42:00,26.4,7.0,30.03,North,-999,-999.0,-999.0,43,0.00,,,0.00,meteohub,2013-03-01 11:42:00,
2013-03-01 06:47:00,26.2,7.3,30.03,North,-999,-999.0,-999.0,44,0.00,,,0.00,meteohub,2013-03-01 11:47:00,
2013-03-01 06:52:00,26.2,7.3,30.03,North,-999,-999.0,-999.0,44,0.00,,,0.00,meteohub,2013-03-01 11:52:00,
2013-03-01 06:58:00,26.2,7.3,30.03,North,-999,-999.0,-999.0,44,0.00,,,0.00,meteohub,2013-03-01 11:58:00,
2013-03-01 07:03:00,26.1,7.7,30.03,North,-999,-999.0,-999.0,45,0.00,,,0.00,meteohub,2013-03-01 12:03:00,
2013-03-01 07:08:00,26.1,7.7,30.03,North,-999,-999.0,-999.0,45,0.00,,,0.00,meteohub,2013-03-01 12:08:00,
2013-03-01 07:14:00,26.1,8.1,30.03,North,-999,-999.0,-999.0,46,0.00,,,0.00,meteohub,2013-03-01 12:14:00,
2013-03-01 07:19:00,25.9,7.5,30.03,North,-999,-999.0,-999.0,45,0.00,,,0.00,meteohub,2013-03-01 12:19:00,
2013-03-01 07:24:00,25.9,7.5,30.03,North,-999,-999.0,-999.0,45,0.00,,,0.00,meteohub,2013-03-01 12:24:00,
2013-03-01 07:29:00,25.7,6.8,30.03,North,-999,-999.0,-999.0,44,0.00,,,0.00,meteohub,2013-03-01 12:29:00,
2013-03-01 07:35:00,25.7,6.8,30.03,North,-999,-999.0,-999.0,44,0.00,,,0.00,meteohub,2013-03-01 12:35:00,
2013-03-01 07:40:00,25.7,6.8,30.03,North,-999,-999.0,-999.0,44,0.00,,,0.00,meteohub,2013-03-01 12:40:00,
2013-03-01 07:45:00,25.7,6.8,30.03,North,-999,-999.0,-999.0,44,0.00,,,0.00,meteohub,2013-03-01 12:45:00,
2013-03-01 07:50:00,25.5,6.6,30.03,North,-999,-999.0,-999.0,44,0.00,,,0.00,meteohub,2013-03-01 12:50:00,
2013-03-01 07:56:00,25.5,6.6,30.03,North,-999,-999.0,-999.0,44,0.00,,,0.00,meteohub,2013-03-01 12:56:00,
2013-03-01 08:01:00,25.3,6.4,30.03,North,-999,-999.0,-999.0,44,0.00,,,0.00,meteohub,2013-03-01 13:01:00,
2013-03-01 08:06:00,25.3,7.0,30.03,North,-999,-999.0,-999.0,45,0.00,,,0.00,meteohub,2013-03-01 13:06:00,
2013-03-01 08:11:00,25.3,7.0,30.03,North,-999,-999.0,-999.0,45,0.00,,,0.00,meteohub,2013-03-01 13:11:00,
2013-03-01 08:17:00,25.2,6.8,30.03,North,-999,-999.0,-999.0,45,0.00,,,0.00,meteohub,2013-03-01 13:17:00,
2013-03-01 08:22:00,25.2,6.8,30.03,North,-999,-999.0,-999.0,45,0.00,,,0.00,meteohub,2013-03-01 13:22:00,
2013-03-01 08:27:00,25.0,6.6,30.03,North,-999,-999.0,-999.0,45,0.00,,,0.00,meteohub,2013-03-01 13:27:00,
2013-03-01 08:32:00,25.0,7.2,30.03,North,-999,-999.0,-999.0,46,0.00,,,0.00,meteohub,2013-03-01 13:32:00,
2013-03-01 08:37:00,25.0,7.7,30.03,North,-999,-999.0,-999.0,47,0.00,,,0.00,meteohub,2013-03-01 13:37:00,
2013-03-01 08:42:00,25.0,7.7,30.06,North,-999,-999.0,-999.0,47,0.00,,,0.00,meteohub,2013-03-01 13:42:00,
2013-03-01 08:47:00,25.0,7.2,30.06,North,-999,-999.0,-999.0,46,0.00,,,0.00,meteohub,2013-03-01 13:47:00,
2013-03-01 08:52:00,25.0,7.7,30.06,North,-999,-999.0,-999.0,47,0.00,,,0.00,meteohub,2013-03-01 13:52:00,
2013-03-01 08:57:00,25.0,7.7,30.06,North,-999,-999.0,-999.0,47,0.00,,,0.00,meteohub,2013-03-01 13:57:00,
2013-03-01 09:04:00,24.8,7.9,30.06,North,-999,-999.0,-999.0,48,0.00,,,0.00,meteohub,2013-03-01 14:04:00,
2013-03-01 09:09:00,24.8,7.9,30.06,North,-999,-999.0,-999.0,48,0.00,,,0.00,meteohub,2013-03-01 14:09:00,
2013-03-01 09:14:00,24.8,7.5,30.06,North,-999,-999.0,-999.0,47,0.00,,,0.00,meteohub,2013-03-01 14:14:00,
2013-03-01 09:20:00,24.8,7.0,30.06,North,-999,-999.0,-999.0,46,0.00,,,0.00,meteohub,2013-03-01 14:20:00,
2013-03-01 09:25:00,24.8,6.1,30.06,North,-999,-999.0,-999.0,44,0.00,,,0.00,meteohub,2013-03-01 14:25:00,
2013-03-01 09:30:00,25.0,6.3,30.06,North,-999,-999.0,-999.0,44,0.00,,,0.00,meteohub,2013-03-01 14:30:00,
2013-03-01 09:35:00,25.0,6.3,30.06,North,-999,-999.0,-999.0,44,0.00,,,0.00,meteohub,2013-03-01 14:35:00,
2013-03-01 09:40:00,24.8,6.1,30.06,North,-999,-999.0,-999.0,44,0.00,,,0.00,meteohub,2013-03-01 14:40:00,
2013-03-01 09:45:00,24.8,6.4,30.06,North,-999,-999.0,-999.0,45,0.00,,,0.00,meteohub,2013-03-01 14:45:00,
2013-03-01 09:50:00,24.6,6.3,30.06,North,-999,-999.0,-999.0,45,0.00,,,0.00,meteohub,2013-03-01 14:50:00,
2013-03-01 09:56:00,24.6,6.3,30.06,North,-999,-999.0,-999.0,45,0.00,,,0.00,meteohub,2013-03-01 14:56:00,
2013-03-01 10:01:00,24.8,7.0,30.06,North,-999,-999.0,-999.0,46,0.00,,,0.00,meteohub,2013-03-01 15:01:00,
2013-03-01 10:06:00,24.8,7.0,30.06,North,-999,-999.0,-999.0,46,0.00,,,0.00,meteohub,2013-03-01 15:06:00,
2013-03-01 10:11:00,24.8,6.4,30.06,North,-999,-999.0,-999.0,45,0.00,,,0.00,meteohub,2013-03-01 15:11:00,
2013-03-01 10:16:00,24.6,6.3,30.06,North,-999,-999.0,-999.0,45,0.00,,,0.00,meteohub,2013-03-01 15:16:00,
2013-03-01 10:22:00,24.6,6.8,30.06,North,-999,-999.0,-999.0,46,0.00,,,0.00,meteohub,2013-03-01 15:22:00,
2013-03-01 10:27:00,24.8,7.0,30.06,North,-999,-999.0,-999.0,46,0.00,,,0.00,meteohub,2013-03-01 15:27:00,
2013-03-01 10:32:00,24.8,6.4,30.06,North,-999,-999.0,-999.0,45,0.00,,,0.00,meteohub,2013-03-01 15:32:00,
2013-03-01 10:37:00,25.0,6.6,30.06,North,-999,-999.0,-999.0,45,0.00,,,0.00,meteohub,2013-03-01 15:37:00,
2013-03-01 10:42:00,24.8,6.1,30.06,North,-999,-999.0,-999.0,44,0.00,,,0.00,meteohub,2013-03-01 15:42:00,
2013-03-01 10:47:00,25.0,5.7,30.06,North,-999,-999.0,-999.0,43,0.00,,,0.00,meteohub,2013-03-01 15:47:00,
2013-03-01 10:52:00,25.0,5.7,30.06,North,-999,-999.0,-999.0,43,0.00,,,0.00,meteohub,2013-03-01 15:52:00,
2013-03-01 10:57:00,25.0,5.7,30.06,North,-999,-999.0,-999.0,43,0.00,,,0.00,meteohub,2013-03-01 15:57:00,
2013-03-01 11:02:00,25.0,6.3,30.06,North,-999,-999.0,-999.0,44,0.00,,,0.00,meteohub,2013-03-01 16:02:00,
2013-03-01 11:07:00,25.0,5.7,30.06,North,-999,-999.0,-999.0,43,0.00,,,0.00,meteohub,2013-03-01 16:07:00,
2013-03-01 11:12:00,25.0,6.3,30.06,North,-999,-999.0,-999.0,44,0.00,,,0.00,meteohub,2013-03-01 16:12:00,
2013-03-01 11:17:00,25.0,5.7,30.06,North,-999,-999.0,-999.0,43,0.00,,,0.00,meteohub,2013-03-01 16:17:00,
2013-03-01 11:23:00,25.0,5.7,30.06,North,-999,-999.0,-999.0,43,0.00,,,0.00,meteohub,2013-03-01 16:23:00,
2013-03-01 11:28:00,25.0,5.7,30.06,North,-999,-999.0,-999.0,43,0.00,,,0.00,meteohub,2013-03-01 16:28:00,
2013-03-01 11:33:00,25.0,5.7,30.06,North,-999,-999.0,-999.0,43,0.00,,,0.00,meteohub,2013-03-01 16:33:00,
2013-03-01 11:38:00,25.0,6.3,30.06,North,-999,-999.0,-999.0,44,0.00,,,0.00,meteohub,2013-03-01 16:38:00,
2013-03-01 11:43:00,25.0,5.7,30.06,North,-999,-999.0,-999.0,43,0.00,,,0.00,meteohub,2013-03-01 16:43:00,
2013-03-01 11:48:00,25.0,5.7,30.06,North,-999,-999.0,-999.0,43,0.00,,,0.00,meteohub,2013-03-01 16:48:00,
2013-03-01 11:54:00,25.0,6.3,30.06,North,-999,-999.0,-999.0,44,0.00,,,0.00,meteohub,2013-03-01 16:54:00,
2013-03-01 11:59:00,25.0,6.3,30.06,North,-999,-999.0,-999.0,44,0.00,,,0.00,meteohub,2013-03-01 16:59:00,
2013-03-01 12:04:00,25.2,5.9,30.06,North,-999,-999.0,-999.0,43,0.00,,,0.00,meteohub,2013-03-01 17:04:00,
2013-03-01 12:09:00,25.3,5.5,30.06,North,-999,-999.0,-999.0,42,0.00,,,0.00,meteohub,2013-03-01 17:09:00,
2013-03-01 12:15:00,25.3,6.1,30.06,North,-999,-999.0,-999.0,43,0.00,,,0.00,meteohub,2013-03-01 17:15:00,
2013-03-01 12:20:00,25.3,5.5,30.06,North,-999,-999.0,-999.0,42,0.00,,,0.00,meteohub,2013-03-01 17:20:00,
2013-03-01 12:25:00,25.5,5.7,30.06,North,-999,-999.0,-999.0,42,0.00,,,0.00,meteohub,2013-03-01 17:25:00,
2013-03-01 12:30:00,25.3,5.0,30.06,North,-999,-999.0,-999.0,41,0.00,,,0.00,meteohub,2013-03-01 17:30:00,
2013-03-01 12:35:00,25.3,5.0,30.06,North,-999,-999.0,-999.0,41,0.00,,,0.00,meteohub,2013-03-01 17:35:00,
2013-03-01 12:41:00,25.3,5.5,30.06,North,-999,-999.0,-999.0,42,0.00,,,0.00,meteohub,2013-03-01 17:41:00,
2013-03-01 12:46:00,25.3,5.5,30.06,North,-999,-999.0,-999.0,42,0.00,,,0.00,meteohub,2013-03-01 17:46:00,
2013-03-01 12:51:00,25.5,5.7,30.06,North,-999,-999.0,-999.0,42,0.00,,,0.00,meteohub,2013-03-01 17:51:00,
2013-03-01 12:57:00,25.3,5.5,30.06,North,-999,-999.0,-999.0,42,0.00,,,0.00,meteohub,2013-03-01 17:57:00,
2013-03-01 13:02:00,25.3,5.5,30.06,North,-999,-999.0,-999.0,42,0.00,,,0.00,meteohub,2013-03-01 18:02:00,
2013-03-01 13:07:00,25.5,5.7,30.06,North,-999,-999.0,-999.0,42,0.00,,,0.00,meteohub,2013-03-01 18:07:00,
2013-03-01 13:12:00,25.7,5.9,30.06,North,-999,-999.0,-999.0,42,0.00,,,0.00,meteohub,2013-03-01 18:12:00,
2013-03-01 13:17:00,25.5,5.7,30.06,North,-999,-999.0,-999.0,42,0.00,,,0.00,meteohub,2013-03-01 18:17:00,
2013-03-01 13:22:00,25.5,5.7,30.06,North,-999,-999.0,-999.0,42,0.00,,,0.00,meteohub,2013-03-01 18:22:00,
2013-03-01 13:43:00,25.7,5.9,30.06,North,-999,-999.0,-999.0,42,0.00,,,0.00,meteohub,2013-03-01 18:43:00,
2013-03-01 13:49:00,25.9,5.9,30.06,North,-999,-999.0,-999.0,42,0.00,,,0.00,meteohub,2013-03-01 18:49:00,
2013-03-01 13:54:00,26.1,6.1,30.06,North,-999,-999.0,-999.0,42,0.00,,,0.00,meteohub,2013-03-01 18:54:00,
2013-03-01 13:59:00,25.9,5.9,30.06,North,-999,-999.0,-999.0,42,0.00,,,0.00,meteohub,2013-03-01 18:59:00,
2013-03-01 14:04:00,25.9,5.9,30.06,North,-999,-999.0,-999.0,42,0.00,,,0.00,meteohub,2013-03-01 19:04:00,
2013-03-01 14:10:00,25.7,5.9,30.06,North,-999,-999.0,-999.0,42,0.00,,,0.00,meteohub,2013-03-01 19:10:00,
2013-03-01 14:15:00,25.7,6.3,30.06,North,-999,-999.0,-999.0,43,0.00,,,0.00,meteohub,2013-03-01 19:15:00,
2013-03-01 14:20:00,25.7,6.3,30.06,North,-999,-999.0,-999.0,43,0.00,,,0.00,meteohub,2013-03-01 19:20:00,
2013-03-01 14:25:00,25.9,6.4,30.06,North,-999,-999.0,-999.0,43,0.00,,,0.00,meteohub,2013-03-01 19:25:00,
2013-03-01 14:31:00,25.9,6.4,30.06,North,-999,-999.0,-999.0,43,0.00,,,0.00,meteohub,2013-03-01 19:31:00,
2013-03-01 14:36:00,25.9,5.9,30.06,North,-999,-999.0,-999.0,42,0.00,,,0.00,meteohub,2013-03-01 19:36:00,
2013-03-01 14:41:00,25.9,6.4,30.03,North,-999,-999.0,-999.0,43,0.00,,,0.00,meteohub,2013-03-01 19:41:00,
2013-03-01 14:47:00,25.9,5.9,30.03,North,-999,-999.0,-999.0,42,0.00,,,0.00,meteohub,2013-03-01 19:47:00,
2013-03-01 14:52:00,25.9,6.4,30.03,North,-999,-999.0,-999.0,43,0.00,,,0.00,meteohub,2013-03-01 19:52:00,
2013-03-01 14:57:00,25.9,6.4,30.06,North,-999,-999.0,-999.0,43,0.00,,,0.00,meteohub,2013-03-01 19:57:00,
2013-03-01 15:02:00,25.9,6.4,30.06,North,-999,-999.0,-999.0,43,0.00,,,0.00,meteohub,2013-03-01 20:02:00,
2013-03-01 15:07:00,26.1,6.6,30.06,North,-999,-999.0,-999.0,43,0.00,,,0.00,meteohub,2013-03-01 20:07:00,
2013-03-01 15:12:00,26.1,6.1,30.06,North,-999,-999.0,-999.0,42,0.00,,,0.00,meteohub,2013-03-01 20:12:00,
2013-03-01 15:17:00,26.1,6.1,30.06,North,-999,-999.0,-999.0,42,0.00,,,0.00,meteohub,2013-03-01 20:17:00,
2013-03-01 15:23:00,26.1,6.1,30.06,North,-999,-999.0,-999.0,42,0.00,,,0.00,meteohub,2013-03-01 20:23:00,
2013-03-01 15:28:00,25.9,5.9,30.06,North,-999,-999.0,-999.0,42,0.00,,,0.00,meteohub,2013-03-01 20:28:00,
2013-03-01 15:33:00,25.9,5.5,30.06,North,-999,-999.0,-999.0,41,0.00,,,0.00,meteohub,2013-03-01 20:33:00,
2013-03-01 15:41:00,25.7,5.4,30.06,North,-999,-999.0,-999.0,41,0.00,,,0.00,meteohub,2013-03-01 20:41:00,
2013-03-01 15:46:00,25.9,5.5,30.06,North,-999,-999.0,-999.0,41,0.00,,,0.00,meteohub,2013-03-01 20:46:00,
2013-03-01 15:51:00,25.9,5.9,30.06,North,-999,-999.0,-999.0,42,0.00,,,0.00,meteohub,2013-03-01 20:51:00,
2013-03-01 15:56:00,25.7,5.4,30.06,North,-999,-999.0,-999.0,41,0.00,,,0.00,meteohub,2013-03-01 20:56:00,
2013-03-01 16:02:00,25.7,5.9,30.06,North,-999,-999.0,-999.0,42,0.00,,,0.00,meteohub,2013-03-01 21:02:00,
2013-03-01 16:07:00,25.5,5.7,30.06,North,-999,-999.0,-999.0,42,0.00,,,0.00,meteohub,2013-03-01 21:07:00,
2013-03-01 16:12:00,25.5,5.7,30.06,North,-999,-999.0,-999.0,42,0.00,,,0.00,meteohub,2013-03-01 21:12:00,
2013-03-01 16:17:00,25.5,5.7,30.06,North,-999,-999.0,-999.0,42,0.00,,,0.00,meteohub,2013-03-01 21:17:00,
2013-03-01 16:22:00,25.3,5.5,30.06,North,-999,-999.0,-999.0,42,0.00,,,0.00,meteohub,2013-03-01 21:22:00,
2013-03-01 16:27:00,25.3,5.5,30.06,North,-999,-999.0,-999.0,42,0.00,,,0.00,meteohub,2013-03-01 21:27:00,
2013-03-01 16:32:00,25.3,5.5,30.06,North,-999,-999.0,-999.0,42,0.00,,,0.00,meteohub,2013-03-01 21:32:00,
2013-03-01 16:37:00,25.3,5.5,30.06,North,-999,-999.0,-999.0,42,0.00,,,0.00,meteohub,2013-03-01 21:37:00,
2013-03-01 16:42:00,25.2,5.4,30.06,North,-999,-999.0,-999.0,42,0.00,,,0.00,meteohub,2013-03-01 21:42:00,
2013-03-01 16:50:00,25.2,5.4,30.06,North,-999,-999.0,-999.0,42,0.00,,,0.00,meteohub,2013-03-01 21:50:00,
2013-03-01 16:56:00,25.2,5.4,30.09,North,-999,-999.0,-999.0,42,0.00,,,0.00,meteohub,2013-03-01 21:56:00,
2013-03-01 17:01:00,25.0,5.2,30.09,North,-999,-999.0,-999.0,42,0.00,,,0.00,meteohub,2013-03-01 22:01:00,
2013-03-01 17:06:00,25.2,5.9,30.09,North,-999,-999.0,-999.0,43,0.00,,,0.00,meteohub,2013-03-01 22:06:00,
2013-03-01 17:12:00,25.2,5.4,30.09,North,-999,-999.0,-999.0,42,0.00,,,0.00,meteohub,2013-03-01 22:12:00,
2013-03-01 17:17:00,25.0,5.7,30.09,North,-999,-999.0,-999.0,43,0.00,,,0.00,meteohub,2013-03-01 22:17:00,
2013-03-01 17:23:00,25.0,5.7,30.09,North,-999,-999.0,-999.0,43,0.00,,,0.00,meteohub,2013-03-01 22:23:00,
2013-03-01 17:29:00,25.0,5.7,30.09,North,-999,-999.0,-999.0,43,0.00,,,0.00,meteohub,2013-03-01 22:29:00,
2013-03-01 17:34:00,25.0,5.7,30.09,North,-999,-999.0,-999.0,43,0.00,,,0.00,meteohub,2013-03-01 22:34:00,
2013-03-01 17:58:00,25.0,5.7,30.09,North,-999,-999.0,-999.0,43,0.00,,,0.00,meteohub,2013-03-01 22:58:00,
2013-03-01 18:03:00,24.8,5.5,30.09,North,-999,-999.0,-999.0,43,0.00,,,0.00,meteohub,2013-03-01 23:03:00,
2013-03-01 18:09:00,24.8,5.5,30.09,North,-999,-999.0,-999.0,43,0.00,,,0.00,meteohub,2013-03-01 23:09:00,
2013-03-01 18:14:00,25.0,5.7,30.09,North,-999,-999.0,-999.0,43,0.00,,,0.00,meteohub,2013-03-01 23:14:00,
2013-03-01 18:19:00,25.0,5.7,30.09,North,-999,-999.0,-999.0,43,0.00,,,0.00,meteohub,2013-03-01 23:19:00,
2013-03-01 18:24:00,25.0,5.7,30.09,North,-999,-999.0,-999.0,43,0.00,,,0.00,meteohub,2013-03-01 23:24:00,
2013-03-01 18:30:00,25.0,5.7,30.09,North,-999,-999.0,-999.0,43,0.00,,,0.00,meteohub,2013-03-01 23:30:00,
2013-03-01 18:35:00,25.0,5.7,30.09,North,-999,-999.0,-999.0,43,0.00,,,0.00,meteohub,2013-03-01 23:35:00,
2013-03-01 18:40:00,25.0,5.7,30.09,North,-999,-999.0,-999.0,43,0.00,,,0.00,meteohub,2013-03-01 23:40:00,
2013-03-01 18:45:00,25.0,5.7,30.09,North,-999,-999.0,-999.0,43,0.00,,,0.00,meteohub,2013-03-01 23:45:00,
2013-03-01 18:51:00,25.0,5.7,30.09,North,-999,-999.0,-999.0,43,0.00,,,0.00,meteohub,2013-03-01 23:51:00,
2013-03-01 18:56:00,25.0,5.7,30.06,North,-999,-999.0,-999.0,43,0.00,,,0.00,meteohub,2013-03-01 23:56:00,
2013-03-01 19:01:00,25.0,5.7,30.06,North,-999,-999.0,-999.0,43,0.00,,,0.00,meteohub,2013-03-02 00:01:00,
2013-03-01 19:07:00,25.0,5.7,30.06,North,-999,-999.0,-999.0,43,0.00,,,0.00,meteohub,2013-03-02 00:07:00,
2013-03-01 19:12:00,25.0,5.7,30.06,North,-999,-999.0,-999.0,43,0.00,,,0.00,meteohub,2013-03-02 00:12:00,
2013-03-01 19:17:00,25.0,5.7,30.06,North,-999,-999.0,-999.0,43,0.00,,,0.00,meteohub,2013-03-02 00:17:00,
2013-03-01 19:22:00,25.0,5.7,30.06,North,-999,-999.0,-999.0,43,0.00,,,0.00,meteohub,2013-03-02 00:22:00,
2013-03-01 19:28:00,25.2,5.9,30.06,North,-999,-999.0,-999.0,43,0.00,,,0.00,meteohub,2013-03-02 00:28:00,
2013-03-01 19:33:00,25.2,5.9,30.06,North,-999,-999.0,-999.0,43,0.00,,,0.00,meteohub,2013-03-02 00:33:00,
2013-03-01 19:38:00,25.2,5.9,30.06,North,-999,-999.0,-999.0,43,0.00,,,0.00,meteohub,2013-03-02 00:38:00,
2013-03-01 19:43:00,25.2,5.9,30.09,North,-999,-999.0,-999.0,43,0.00,,,0.00,meteohub,2013-03-02 00:43:00,
2013-03-01 19:49:00,25.3,6.1,30.09,North,-999,-999.0,-999.0,43,0.00,,,0.00,meteohub,2013-03-02 00:49:00,
2013-03-01 19:54:00,25.3,6.1,30.09,North,-999,-999.0,-999.0,43,0.00,,,0.00,meteohub,2013-03-02 00:54:00,
2013-03-01 19:59:00,25.3,6.4,30.06,North,-999,-999.0,-999.0,44,0.00,,,0.00,meteohub,2013-03-02 00:59:00,
2013-03-01 20:04:00,25.3,6.4,30.06,North,-999,-999.0,-999.0,44,0.00,,,0.00,meteohub,2013-03-02 01:04:00,
2013-03-01 20:24:00,25.3,6.4,30.09,North,-999,-999.0,-999.0,44,0.00,,,0.00,meteohub,2013-03-02 01:24:00,
2013-03-01 20:29:00,25.3,7.0,30.09,North,-999,-999.0,-999.0,45,0.00,,,0.00,meteohub,2013-03-02 01:29:00,
2013-03-01 20:44:00,25.3,7.0,30.09,North,-999,-999.0,-999.0,45,0.00,,,0.00,meteohub,2013-03-02 01:44:00,
2013-03-01 21:03:00,25.3,7.5,30.09,North,-999,-999.0,-999.0,46,0.00,,,0.00,meteohub,2013-03-02 02:03:00,
2013-03-01 21:09:00,25.3,7.0,30.09,North,-999,-999.0,-999.0,45,0.00,,,0.00,meteohub,2013-03-02 02:09:00,
2013-03-01 21:14:00,25.3,7.0,30.09,North,-999,-999.0,-999.0,45,0.00,,,0.00,meteohub,2013-03-02 02:14:00,
2013-03-01 21:19:00,25.3,7.0,30.09,North,-999,-999.0,-999.0,45,0.00,,,0.00,meteohub,2013-03-02 02:19:00,
2013-03-01 21:24:00,25.3,7.0,30.09,North,-999,-999.0,-999.0,45,0.00,,,0.00,meteohub,2013-03-02 02:24:00,
2013-03-01 21:30:00,25.3,7.0,30.09,North,-999,-999.0,-999.0,45,0.00,,,0.00,meteohub,2013-03-02 02:30:00,
2013-03-01 21:35:00,25.3,7.5,30.09,North,-999,-999.0,-999.0,46,0.00,,,0.00,meteohub,2013-03-02 02:35:00,
2013-03-01 21:40:00,25.3,7.5,30.09,North,-999,-999.0,-999.0,46,0.00,,,0.00,meteohub,2013-03-02 02:40:00,
2013-03-01 21:45:00,25.3,7.0,30.09,North,-999,-999.0,-999.0,45,0.00,,,0.00,meteohub,2013-03-02 02:45:00,
2013-03-01 21:50:00,25.3,7.0,30.09,North,-999,-999.0,-999.0,45,0.00,,,0.00,meteohub,2013-03-02 02:50:00,
2013-03-01 21:56:00,25.3,7.0,30.09,North,-999,-999.0,-999.0,45,0.00,,,0.00,meteohub,2013-03-02 02:56:00,
2013-03-01 22:01:00,25.2,6.8,30.09,North,-999,-999.0,-999.0,45,0.00,,,0.00,meteohub,2013-03-02 03:01:00,
2013-03-01 22:06:00,25.2,6.8,30.09,North,-999,-999.0,-999.0,45,0.00,,,0.00,meteohub,2013-03-02 03:06:00,
2013-03-01 22:11:00,25.2,6.8,30.09,North,-999,-999.0,-999.0,45,0.00,,,0.00,meteohub,2013-03-02 03:11:00,
2013-03-01 22:17:00,25.2,6.8,30.09,North,-999,-999.0,-999.0,45,0.00,,,0.00,meteohub,2013-03-02 03:17:00,
2013-03-01 22:22:00,25.2,6.8,30.09,North,-999,-999.0,-999.0,45,0.00,,,0.00,meteohub,2013-03-02 03:22:00,
2013-03-01 22:27:00,25.2,6.8,30.09,North,-999,-999.0,-999.0,45,0.00,,,0.00,meteohub,2013-03-02 03:27:00,
2013-03-01 22:32:00,25.0,6.6,30.09,North,-999,-999.0,-999.0,45,0.00,,,0.00,meteohub,2013-03-02 03:32:00,
2013-03-01 22:37:00,25.2,6.8,30.09,North,-999,-999.0,-999.0,45,0.00,,,0.00,meteohub,2013-03-02 03:37:00,
2013-03-01 22:42:00,25.0,6.3,30.06,North,-999,-999.0,-999.0,44,0.00,,,0.00,meteohub,2013-03-02 03:42:00,
2013-03-01 22:47:00,25.0,5.7,30.06,North,-999,-999.0,-999.0,43,0.00,,,0.00,meteohub,2013-03-02 03:47:00,
2013-03-01 22:52:00,25.0,6.3,30.06,North,-999,-999.0,-999.0,44,0.00,,,0.00,meteohub,2013-03-02 03:52:00,
2013-03-01 22:57:00,25.0,6.3,30.09,North,-999,-999.0,-999.0,44,0.00,,,0.00,meteohub,2013-03-02 03:57:00,
2013-03-01 23:02:00,25.0,6.3,30.09,North,-999,-999.0,-999.0,44,0.00,,,0.00,meteohub,2013-03-02 04:02:00,
2013-03-01 23:07:00,25.0,5.7,30.09,North,-999,-999.0,-999.0,43,0.00,,,0.00,meteohub,2013-03-02 04:07:00,
2013-03-01 23:12:00,24.8,6.1,30.06,North,-999,-999.0,-999.0,44,0.00,,,0.00,meteohub,2013-03-02 04:12:00,
2013-03-01 23:17:00,24.8,6.1,30.06,North,-999,-999.0,-999.0,44,0.00,,,0.00,meteohub,2013-03-02 04:17:00,
2013-03-01 23:22:00,24.8,6.1,30.06,North,-999,-999.0,-999.0,44,0.00,,,0.00,meteohub,2013-03-02 04:22:00,
2013-03-01 23:27:00,24.8,6.1,30.06,North,-999,-999.0,-999.0,44,0.00,,,0.00,meteohub,2013-03-02 04:27:00,
2013-03-01 23:32:00,24.8,6.1,30.06,North,-999,-999.0,-999.0,44,0.00,,,0.00,meteohub,2013-03-02 04:32:00,
2013-03-01 23:37:00,24.8,6.1,30.06,North,-999,-999.0,-999.0,44,0.00,,,0.00,meteohub,2013-03-02 04:37:00,
2013-03-01 23:42:00,24.6,5.9,30.06,North,-999,-999.0,-999.0,44,0.00,,,0.00,meteohub,2013-03-02 04:42:00,
2013-03-01 23:47:00,24.6,6.3,30.06,North,-999,-999.0,-999.0,45,0.00,,,0.00,meteohub,2013-03-02 04:47:00,
2013-03-01 23:52:00,24.6,6.3,30.06,North,-999,-999.0,-999.0,45,0.00,,,0.00,meteohub,2013-03-02 04:52:00,
2013-03-01 23:57:00,24.6,6.3,30.09,North,-999,-999.0,-999.0,45,0.00,,,0.00,meteohub,2013-03-02 04:57:00,